When you browse on this site, cookies collect data to enhance your experience and personalize the content and advertising you see.
Visit our Privacy Policy to learn more. By continuing to use the site, you agree to this use of cookies and data.
  • In Deutschland
  • Länderverzeichnis
  • Für 7 Tage
  • Wassertemperatur
  • Satellitenkarten
  • Wetterkarte
  • Widgets
  • user-avatar
    Anmelden

    Stündliche Wetter Luksor

    Heute, 19 November, Montag

    Zeit Temperatur Niederschläge Wind Luftdruck Luftfeuchtigkeit
    00:00 +21°C° 0 mm 2 m/S 753 mmHg 27%
    01:00 +20°C° 0 mm 2 m/S 753 mmHg 29%
    02:00 +19°C° 0 mm 2 m/S 753 mmHg 30%
    03:00 +19°C° 0 mm 2 m/S 753 mmHg 32%
    04:00 +18°C° 0 mm 2 m/S 753 mmHg 33%
    05:00 +18°C° 0 mm 2 m/S 753 mmHg 34%
    06:00 +19°C° 0 mm 2 m/S 753 mmHg 32%
    07:00 +20°C° 0 mm 2 m/S 754 mmHg 30%
    08:00 +23°C° 0 mm 2 m/S 754 mmHg 27%
    09:00 +24°C° 0 mm 2 m/S 754 mmHg 24%
    10:00 +26°C° 0 mm 3 m/S 754 mmHg 21%
    11:00 +27°C° 0 mm 3 m/S 754 mmHg 17%
    12:00 +28°C° 0 mm 3 m/S 754 mmHg 16%
    13:00 +29°C° 0 mm 4 m/S 754 mmHg 14%
    14:00 +30°C° 0 mm 4 m/S 754 mmHg 12%
    15:00 +29°C° 0 mm 4 m/S 754 mmHg 13%
    16:00 +28°C° 0 mm 3 m/S 753 mmHg 14%
    17:00 +26°C° 0 mm 3 m/S 753 mmHg 15%
    18:00 +25°C° 0 mm 3 m/S 754 mmHg 17%
    19:00 +24°C° 0 mm 3 m/S 754 mmHg 19%
    20:00 +23°C° 0 mm 2 m/S 754 mmHg 21%
    21:00 +21°C° 0 mm 2 m/S 754 mmHg 23%
    22:00 +21°C° 0 mm 2 m/S 755 mmHg 25%
    23:00 +20°C° 0 mm 2 m/S 755 mmHg 26%

    Morgen, 20 November, Dienstag

    Zeit Temperatur Niederschläge Wind Luftdruck Luftfeuchtigkeit
    00:00 +19°C° 0 mm 2 m/S 755 mmHg 28%
    01:00 +20°C° 0 mm 1 m/S 755 mmHg 30%
    02:00 +19°C° 0 mm 1 m/S 755 mmHg 31%
    03:00 +19°C° 0 mm 1 m/S 755 mmHg 32%
    04:00 +18°C° 0 mm 1 m/S 755 mmHg 33%
    05:00 +18°C° 0 mm 1 m/S 755 mmHg 34%
    06:00 +20°C° 0 mm 1 m/S 755 mmHg 31%
    07:00 +21°C° 0 mm 1 m/S 756 mmHg 28%
    08:00 +23°C° 0 mm 1 m/S 756 mmHg 25%
    09:00 +25°C° 0 mm 2 m/S 756 mmHg 22%
    10:00 +26°C° 0 mm 2 m/S 756 mmHg 18%
    11:00 +28°C° 0 mm 2 m/S 756 mmHg 15%
    12:00 +29°C° 0 mm 2 m/S 756 mmHg 13%
    13:00 +30°C° 0 mm 2 m/S 755 mmHg 11%
    14:00 +31°C° 0 mm 2 m/S 754 mmHg 10%
    15:00 +30°C° 0 mm 2 m/S 754 mmHg 10%
    16:00 +28°C° 0 mm 2 m/S 754 mmHg 11%
    17:00 +27°C° 0 mm 2 m/S 754 mmHg 12%
    18:00 +26°C° 0 mm 2 m/S 754 mmHg 13%
    19:00 +25°C° 0 mm 1 m/S 755 mmHg 14%
    20:00 +24°C° 0 mm 1 m/S 755 mmHg 15%
    21:00 +23°C° 0 mm 1 m/S 755 mmHg 18%
    22:00 +23°C° 0 mm 1 m/S 755 mmHg 21%
    23:00 +22°C° 0 mm 1 m/S 755 mmHg 23%

    übermorgen, 21 November, Mittwoch

    Zeit Temperatur Niederschläge Wind Luftdruck Luftfeuchtigkeit
    00:00 +22°C° 0 mm 1 m/S 755 mmHg 25%
    01:00 +21°C° 0 mm 1 m/S 754 mmHg 26%
    02:00 +21°C° 0 mm 1 m/S 754 mmHg 27%
    03:00 +20°C° 0 mm 1 m/S 754 mmHg 27%
    04:00 +20°C° 0 mm 1 m/S 754 mmHg 27%
    05:00 +20°C° 0 mm 1 m/S 753 mmHg 27%
    06:00 +22°C° 0 mm 1 m/S 754 mmHg 25%
    07:00 +23°C° 0 mm 1 m/S 754 mmHg 22%
    08:00 +25°C° 0 mm 1 m/S 755 mmHg 20%
    09:00 +27°C° 0 mm 1 m/S 754 mmHg 19%
    10:00 +28°C° 0 mm 1 m/S 754 mmHg 18%
    11:00 +30°C° 0 mm 1 m/S 754 mmHg 17%
    12:00 +31°C° 0 mm 2 m/S 753 mmHg 17%
    13:00 +31°C° 0 mm 2 m/S 753 mmHg 16%
    14:00 +32°C° 0 mm 2 m/S 752 mmHg 15%
    15:00 +31°C° 0 mm 2 m/S 752 mmHg 16%
    16:00 +30°C° 0 mm 3 m/S 752 mmHg 16%
    17:00 +28°C° 0 mm 3 m/S 752 mmHg 16%
    18:00 +27°C° 0 mm 3 m/S 752 mmHg 16%
    19:00 +26°C° 0 mm 3 m/S 753 mmHg 15%
    20:00 +25°C° 0 mm 2 m/S 753 mmHg 15%
    21:00 +25°C° 0 mm 2 m/S 753 mmHg 16%
    22:00 +24°C° 0 mm 2 m/S 753 mmHg 17%
    23:00 +23°C° 0 mm 2 m/S 753 mmHg 17%

    22 November, Donnerstag

    Zeit Temperatur Niederschläge Wind Luftdruck Luftfeuchtigkeit
    00:00 +23°C° 0 mm 2 m/S 753 mmHg 18%
    01:00 +22°C° 0 mm 1 m/S 752 mmHg 20%
    02:00 +22°C° 0 mm 1 m/S 752 mmHg 21%
    03:00 +21°C° 0 mm 1 m/S 752 mmHg 21%
    04:00 +21°C° 0 mm 1 m/S 752 mmHg 22%
    05:00 +19°C° 0 mm 2 m/S 752 mmHg 23%
    06:00 +21°C° 0 mm 2 m/S 752 mmHg 22%
    07:00 +23°C° 0 mm 2 m/S 753 mmHg 21%
    08:00 +24°C° 0 mm 3 m/S 753 mmHg 19%
    09:00 +26°C° 0 mm 3 m/S 753 mmHg 18%
    10:00 +28°C° 0 mm 3 m/S 753 mmHg 16%
    11:00 +30°C° 0 mm 4 m/S 752 mmHg 15%
    12:00 +32°C° 0 mm 4 m/S 752 mmHg 14%
    13:00 +33°C° 0 mm 3 m/S 751 mmHg 12%
    14:00 +33°C° 0 mm 3 m/S 751 mmHg 11%
    15:00 +31°C° 0 mm 3 m/S 751 mmHg 14%
    16:00 +30°C° 0 mm 3 m/S 751 mmHg 16%
    17:00 +29°C° 0 mm 4 m/S 751 mmHg 19%
    18:00 +28°C° 0 mm 4 m/S 752 mmHg 23%
    19:00 +27°C° 0 mm 4 m/S 752 mmHg 27%
    20:00 +26°C° 0 mm 4 m/S 753 mmHg 31%
    21:00 +25°C° 0 mm 4 m/S 753 mmHg 32%
    22:00 +25°C° 0 mm 3 m/S 753 mmHg 33%
    23:00 +24°C° 0 mm 3 m/S 753 mmHg 34%

    23 November, Freitag

    Zeit Temperatur Niederschläge Wind Luftdruck Luftfeuchtigkeit
    00:00 +24°C° 0 mm 3 m/S 752 mmHg 35%
    01:00 +22°C° 0 mm 3 m/S 752 mmHg 35%
    02:00 +21°C° 0 mm 3 m/S 752 mmHg 36%
    03:00 +21°C° 0 mm 3 m/S 752 mmHg 36%
    04:00 +21°C° 0 mm 2 m/S 752 mmHg 37%
    05:00 +20°C° 0 mm 2 m/S 752 mmHg 37%
    06:00 +21°C° 0 mm 3 m/S 753 mmHg 36%
    07:00 +21°C° 0 mm 3 m/S 753 mmHg 36%
    08:00 +22°C° 0 mm 3 m/S 754 mmHg 35%
    09:00 +23°C° 0 mm 4 m/S 754 mmHg 34%
    10:00 +26°C° 0 mm 5 m/S 754 mmHg 33%
    11:00 +27°C° 0 mm 6 m/S 754 mmHg 32%
    12:00 +27°C° 0 mm 6 m/S 753 mmHg 30%
    13:00 +28°C° 0 mm 6 m/S 753 mmHg 28%
    14:00 +28°C° 0 mm 6 m/S 752 mmHg 26%
    15:00 +27°C° 0 mm 6 m/S 752 mmHg 29%
    16:00 +26°C° 0 mm 5 m/S 752 mmHg 32%
    17:00 +25°C° 0 mm 5 m/S 753 mmHg 36%
    18:00 +23°C° 0 mm 4 m/S 753 mmHg 37%
    19:00 +22°C° 0 mm 4 m/S 754 mmHg 39%
    20:00 +21°C° 0 mm 4 m/S 754 mmHg 41%
    21:00 +20°C° 0 mm 3 m/S 754 mmHg 43%
    22:00 +20°C° 0 mm 3 m/S 754 mmHg 45%
    23:00 +19°C° 0 mm 3 m/S 754 mmHg 47%

    24 November, Samstag

    Zeit Temperatur Niederschläge Wind Luftdruck Luftfeuchtigkeit
    00:00 +19°C° 0 mm 3 m/S 754 mmHg 49%
    01:00 +18°C° 0 mm 3 m/S 754 mmHg 51%
    02:00 +18°C° 0 mm 3 m/S 753 mmHg 54%
    03:00 +18°C° 0 mm 3 m/S 754 mmHg 57%
    04:00 +17°C° 0 mm 3 m/S 754 mmHg 60%
    05:00 +17°C° 0 mm 2 m/S 754 mmHg 63%
    06:00 +17°C° 0 mm 3 m/S 754 mmHg 61%
    07:00 +18°C° 0 mm 3 m/S 755 mmHg 60%
    08:00 +19°C° 0 mm 3 m/S 755 mmHg 59%
    09:00 +20°C° 0 mm 4 m/S 755 mmHg 53%
    10:00 +21°C° 0 mm 5 m/S 755 mmHg 46%
    11:00 +23°C° 0 mm 6 m/S 755 mmHg 40%
    12:00 +23°C° 0 mm 6 m/S 754 mmHg 37%
    13:00 +24°C° 0 mm 6 m/S 754 mmHg 33%
    14:00 +24°C° 0 mm 6 m/S 753 mmHg 30%
    15:00 +23°C° 0 mm 6 m/S 753 mmHg 33%
    16:00 +22°C° 0 mm 5 m/S 753 mmHg 35%
    17:00 +22°C° 0 mm 4 m/S 754 mmHg 37%
    18:00 +21°C° 0 mm 4 m/S 754 mmHg 40%
    19:00 +20°C° 0 mm 4 m/S 755 mmHg 44%
    20:00 +19°C° 0 mm 3 m/S 755 mmHg 47%
    21:00 +19°C° 0 mm 3 m/S 755 mmHg 49%
    22:00 +18°C° 0 mm 3 m/S 755 mmHg 51%
    23:00 +18°C° 0 mm 3 m/S 755 mmHg 53%
    Mehr zeigen